Montague, CA

2:08 PM PDT on July 20, 2017 (GMT -0700)
Siskiyou County

Weather History for KSIY - March, 2014

Change the Weather History Date:

Friday, March 21, 2014

  Actual Average Record
Temperature  
Mean Temperature 45 °F 43 °F  
Max Temperature 62 °F 57 °F 76 °F (2004)
Min Temperature 28 °F 30 °F 20 °F (1955)
Degree Days  
Heating Degree Days 20 22  
Month to date heating degree days 368 467  
Since 1 July heating degree days 4416 4344  
Cooling Degree Days 0 0  
Month to date cooling degree days 0 0  
Year to date cooling degree days 0 0  
Moisture  
Dew Point 23 °F    
Average Humidity 49    
Maximum Humidity 78    
Minimum Humidity 16    
Precipitation  
Precipitation 0.00 in 0.06 in 0.32 in (2017)
Month to date precipitation 1.69 1.58  
Year to date precipitation 4.13 5.79  
Sea Level Pressure  
Sea Level Pressure 30.11 in    
Wind  
Wind Speed 8 mph (NNE)    
Max Wind Speed 22 mph    
Max Gust Speed 27 mph    
Visibility 10 miles    
Events      
T = Trace of Precipitation, MM = Missing Value Source: NWS Daily Summary

Daily Weather History Graph

Daily Weather History Graph

Search for Another Location

Airport or City:

Trip Planner

Search our weather history database for the weather conditions in past years. The results will help you decide how hot, cold, wet, or windy it might be!

Date:

Astronomy

Mar. 21, 2014 Rise Set
Actual Time 7:11 AM PDT 7:23 PM PDT
Civil Twilight 6:43 AM PDT 7:51 PM PDT
Nautical Twilight 6:11 AM PDT 8:23 PM PDT
Astronomical Twilight 5:37 AM PDT 8:57 PM PDT
Moon No Moon Rise 10:03 AM PDT (3/21)
Length of Visible Light 13h 07m
Length of Day
12h 12m
Waning Gibbous, 74% of the Moon is Illuminated
Mar 21
Waning Gibbous
Mar 23
Last Quarter
Mar 30
New
Apr 7
First Quarter
Apr 15
Full

Hourly Weather History & Observations

Time (PDT) Temp. Windchill Dew Point Humidity Pressure Visibility Wind Dir Wind Speed Gust Speed Precip Events Conditions
12:53 AM 41.0 °F 35.2 °F 28.9 °F 62% 30.13 in 10.0 mi North 9.2 mph - N/A   Clear
1:53 AM 39.0 °F 34.0 °F 28.9 °F 67% 30.13 in 10.0 mi North 6.9 mph - N/A   Clear
2:53 AM 37.9 °F 30.0 °F 28.9 °F 70% 30.12 in 10.0 mi North 12.7 mph - N/A   Clear
3:53 AM 35.1 °F 31.0 °F 28.0 °F 76% 30.12 in 10.0 mi ENE 4.6 mph - N/A   Clear
4:53 AM 30.0 °F 24.1 °F 24.1 °F 79% 30.12 in 10.0 mi East 5.8 mph - N/A   Clear
5:53 AM 32.0 °F 27.5 °F 24.1 °F 73% 30.12 in 10.0 mi East 4.6 mph - N/A   Clear
6:53 AM 28.0 °F - 23.0 °F 81% 30.15 in 10.0 mi Calm Calm - N/A   Clear
7:53 AM 30.0 °F - 25.0 °F 82% 30.17 in 10.0 mi Calm Calm - N/A   Clear
8:53 AM 37.9 °F - 26.1 °F 62% 30.16 in 10.0 mi Calm Calm - N/A   Clear
9:53 AM 44.1 °F - 25.0 °F 47% 30.14 in 10.0 mi Calm Calm - N/A   Clear
10:53 AM 45.0 °F - 28.0 °F 52% 30.14 in 10.0 mi Calm Calm - N/A   Clear
11:53 AM 51.1 °F - 28.9 °F 43% 30.12 in 10.0 mi North 4.6 mph - N/A   Clear
12:53 PM 53.1 °F - 26.1 °F 35% 30.10 in 10.0 mi East 3.5 mph - N/A   Clear
1:53 PM 57.0 °F - 23.0 °F 27% 30.07 in 10.0 mi Variable 5.8 mph - N/A   Clear
2:53 PM 61.0 °F - 24.1 °F 24% 30.05 in 10.0 mi North 12.7 mph - N/A   Clear
3:53 PM 62.1 °F - 17.1 °F 18% 30.04 in 10.0 mi NNE 13.8 mph - N/A   Clear
4:53 PM 61.0 °F - 15.1 °F 17% 30.04 in 10.0 mi NNE 15.0 mph - N/A   Clear
5:53 PM 59.0 °F - 14.0 °F 17% 30.05 in 10.0 mi NNE 18.4 mph - N/A   Clear
6:53 PM 53.1 °F - 16.0 °F 23% 30.08 in 10.0 mi North 19.6 mph - N/A   Clear
7:53 PM 46.0 °F 40.2 °F 17.1 °F 31% 30.10 in 10.0 mi NNE 12.7 mph - N/A   Clear
8:53 PM 44.1 °F 37.4 °F 23.0 °F 43% 30.12 in 10.0 mi North 13.8 mph - N/A   Clear
9:53 PM 44.1 °F 39.5 °F 21.0 °F 40% 30.13 in 10.0 mi NNW 8.1 mph - N/A   Clear
10:53 PM 39.0 °F 29.9 °F 21.0 °F 49% 30.15 in 10.0 mi NNE 17.3 mph - N/A   Clear
11:53 PM 37.9 °F 30.0 °F 21.0 °F 51% 30.15 in 10.0 mi North 12.7 mph - N/A   Clear